Overview Statistics Trail Chart Weather Telemetry Raw packets
 

This is the latest recevied weather packets stored in our database for station/object JE6MIQ-13. If no packets are shown the sender has not sent any weather packets the latest 10 day(s).

<< 1 2 3 4 5 6 >>
Time Temp. Humidity Pressure Rain* Wind** Luminosity Snow
1788572978 29.44° C 25% 1005 hPa 0 mm - - -
1788572076 29.44° C 25% 1004.8 hPa 0 mm - - -
1788571177 29.44° C 25% 1005 hPa 0 mm - - -
1788570277 28.89° C 25% 1005 hPa 0 mm - - -
1788569376 28.89° C 25% 1005.2 hPa 0 mm - - -
1788568478 28.33° C 25% 1005.2 hPa 0 mm - - -
1788567578 28.33° C 25% 1005.4 hPa 0 mm - - -
1788566678 27.78° C 26% 1005.3 hPa 0 mm - - -
1788565778 27.78° C 28% 1005.8 hPa 0 mm - - -
1788564878 27.22° C 32% 1005.9 hPa 0 mm - - -
1788563977 26.11° C 38% 1006 hPa 0 mm - - -
1788563076 25.56° C 42% 1006.1 hPa 0 mm - - -
1788562177 25° C 44% 1006.3 hPa 0 mm - - -
1788561277 25° C 47% 1006.4 hPa 0 mm - - -
1788560376 24.44° C 48% 1006.3 hPa 0 mm - - -
1788559853 24.44° C 48% 1006.3 hPa 0 mm - - -
1788558952 24.44° C 49% 1005.9 hPa 0 mm - - -
1788558052 23.89° C 49% 1006 hPa 0 mm - - -
1788557151 23.89° C 50% 1006.2 hPa 0 mm - - -
1788556252 23.89° C 53% 1005.9 hPa 0 mm - - -
1788555352 23.89° C 53% 1005.8 hPa 0 mm - - -
1788554452 23.89° C 51% 1005.8 hPa 0 mm - - -
1788553553 23.89° C 50% 1005.9 hPa 0 mm - - -
1788552652 23.89° C 48% 1005.9 hPa 0 mm - - -
1788551752 23.89° C 48% 1005.8 hPa 0 mm - - -

* Rain latest hour (hover to see other rain measurements)
** Current wind speed in m/s (hover to see current wind gust speed)